Location: Morichella
(43.0833°N, 13.2667°E)
Time: 16:15:58
(UTC+00:00)

Daily predictions for brighter satellites

Satellite Brightness Start Highest point End
(mag) Time Altitude Azimuth Time Altitude Azimuth Time Altitude Azimuth
SMAP 3.2 16:35:57 10° SSE 16:40:36 82° WSW 16:45:17 10° NNW
Meteor 1-16 Rocket 4.2 16:39:53 10° S 16:45:23 85° E 16:50:48 10° N
Cosmos 2278 Rocket 2.3 16:41:13 10° S 16:46:48 63° ESE 16:52:25 10° NNE
Cosmos 1908 3.5 16:43:54 10° SSE 16:47:39 48° E 16:51:24 10° NNE
Cosmos 1461 3.2 16:44:57 10° NNW 16:48:55 46° NE 16:52:59 10° SE
Unknown 4.1 16:45:46 10° NW 16:48:58 32° NNE 16:52:11 10° E
CZ-4 R/B 2.1 16:45:29 10° SE 16:49:16 34° ENE 16:53:06 10° N
Abrixas rocket 2.8 16:49:13 10° W 16:52:11 45° NNW 16:55:09 10° ENE
Gbstr 26 Del rocket 4.1 16:47:06 10° NW 16:52:57 68° NNE 17:00:07 10° ESE
Meteor 2-10 3.9 16:48:25 10° S 16:53:28 79° E 16:58:31 10° NNE
NOSS 3-2 (A) 3.7 16:49:03 10° S 16:54:23 44° ESE 17:00:20 10° NE
CSL-04 Rocket 4.1 16:51:54 10° SE 16:57:00 40° ENE 17:02:04 10° N
EO 1 Delta rocket 4.4 16:53:47 10° SE 16:58:00 36° ENE 17:02:37 10° N
FengYun 1-2 T 4.4 16:54:04 10° SSE 16:59:31 55° ENE 17:04:58 10° N
Cosmos 2058 Rocket 3.3 16:55:44 10° SSW 17:00:05 75° W 17:04:27 10° N
Meteor 1-11 4.3 16:56:01 10° N 17:01:49 72° E 17:07:36 10° SSE
SJ 16-02 3.3 17:02:29 10° NE 17:03:35 11° NE 17:04:01 11° ENE
Cosmos 2084 Rocket 4.3 17:00:43 10° NNW 17:04:44 33° NE 17:08:09 13° ESE
Ariane Rocket 4.1 17:01:00 10° ESE 17:04:54 23° ENE 17:08:49 10° NNE
YAOGAN 6 2.8 17:02:23 10° SSE 17:05:53 46° ENE 17:09:21 10° N
COSMO-SKYMED 1 2.5 17:10:38 10° NNE 17:14:59 75° E 17:19:19 10° S
Cosmos 1833 Rocket 2.6 17:13:16 10° NNW 17:18:55 81° ENE 17:24:31 10° SSE
Cosmos 1339 Rocket 4.4 17:13:23 10° S 17:19:28 83° E 17:25:40 10° N
NOSS 3-2 (C) 3.7 17:15:27 10° S 17:20:48 44° ESE 17:26:46 10° NE
ASTEX 1 3.7 17:19:21 10° N 17:24:18 72° W 17:29:16 10° SSW
BREEZE-M DEB (TANK) 3.5 17:12:06 10° SW 17:25:31 74° SSE 17:28:14 21° ENE
Okean-O 4.1 17:21:59 10° S 17:26:10 41° W 17:30:22 10° NNW
CZ-4 R/B 4.4 17:23:01 10° SSE 17:27:08 86° WSW 17:31:17 10° NNW
Lacrosse 5 1.8 17:28:02 10° NW 17:33:07 80° NE 17:36:54 18° SE
Unknown 3.0 17:31:25 10° NW 17:34:51 86° NE 17:36:20 31° SE
Cosmos 1076 Rocket 3.5 17:31:48 10° N 17:36:06 56° E 17:40:20 10° SSE
Cosmos 1300 2.6 17:32:40 10° S 17:36:24 58° E 17:40:10 10° NNE
Cosmos 1605 Rocket 4.2 17:30:23 10° NNW 17:36:32 72° W 17:42:35 10° S
Cosmos 2058 3.3 17:34:26 10° N 17:38:27 42° ENE 17:41:09 18° SE
Delta 2 Rocket 4.4 17:38:37 10° SW 17:41:32 24° S 17:42:27 21° SSE
Cosmos 1763 Rocket 4.1 17:39:01 10° SSE 17:43:41 33° E 17:45:07 28° ENE
Okean 3 Rocket 4.3 17:40:06 10° N 17:44:11 32° ENE 17:44:13 32° ENE
CZ-2D R/B 3.2 17:41:53 10° SSE 17:45:40 61° ENE 17:49:30 10° N
ATLAS 3B R/B 2.9 17:39:29 10° S 17:45:52 47° ESE 17:50:12 20° NE
CSL-04 Debris 4.3 17:41:11 10° S 17:46:38 79° WSW 17:52:09 10° NNW
FALCON 9 DEB 3.1 17:44:07 10° NW 17:47:36 87° SW 17:48:30 48° SE
Cosmos 1727 Rocket 4.0 17:42:01 10° S 17:48:12 87° W 17:54:25 10° N
Cosmos 1812 Rocket 3.7 17:46:23 10° SSW 17:50:48 74° W 17:55:16 10° N
Cosmos 1939 Rocket 2.8 17:48:03 16° SSE 17:51:09 64° ENE 17:55:11 10° N
IRS-1A Rocket 4.3 17:47:02 14° SE 17:51:32 51° ENE 17:56:51 10° N
Cosmos 2082 Rocket 2.3 17:46:16 10° NNW 17:52:00 81° WSW 17:57:39 10° SSE
CENTAUR R/B 2.5 17:46:56 10° SSW 17:52:34 53° ESE 17:56:59 21° NE
Cosmos 2173 Rocket 3.9 17:47:17 10° N 17:53:28 59° E 17:59:29 10° SSE
Cosmos 2151 4.3 17:50:58 10° NNE 17:53:14 24° NE 17:53:14 24° NE
BREEZE-M DEB (TANK) 2.7 17:55:35 10° WSW 17:59:33 49° NNW 17:59:43 48° N
Cosmos 1943 Rocket 4.2 17:55:43 10° SSE 17:55:56 11° SSE 17:55:56 11° SSE
Falcon 9 debris 3.5 17:57:43 10° WNW 18:01:06 58° SW 18:01:35 52° S
YAOGAN 1 3.4 17:57:00 10° S 18:01:12 51° W 18:05:27 10° NNW
Unknown 3.2 18:01:26 10° WNW 18:04:57 74° SW 18:05:02 73° SSW
Cosmos 1802 Rocket 4.0 17:58:36 10° N 18:04:58 60° E 18:11:15 10° SSE
Cosmos 2123 Rocket 4.3 17:59:17 10° SSE 18:05:07 41° E 18:10:56 10° NNE
Cosmos 44 3.2 18:00:56 10° SW 18:05:55 83° WNW 18:08:22 29° NNE
H-2A R/B 3.3 18:11:50 26° NE 18:11:50 26° NE 18:14:59 10° N
Shenzhou-11 Module 4.4 18:09:13 10° WSW 18:10:44 15° SW 18:10:44 15° SW
Cosmos 1000 Rocket 4.3 18:05:46 10° S 18:11:56 78° E 18:18:13 10° N
Cosmos 1898 Rocket 3.4 18:07:55 10° NNW 18:13:13 71° ENE 18:14:40 48° SE
Unknown 4.1 18:10:00 10° NW 18:12:58 44° N 18:12:58 44° N
In-Cosmos 22 Rocket 4.0 18:09:11 10° N 18:14:39 83° E 18:19:21 15° SSE
BREEZE M DEB (TANK) 3.3 18:12:35 10° WNW 18:15:28 52° SSW 18:17:55 30° SSE
Meteor 2-1 Rocket 4.1 18:10:53 10° S 18:16:24 88° WNW 18:22:01 10° N
Cosmos 1725 Rocket 4.1 18:10:51 10° N 18:16:57 49° ENE 18:17:32 48° E
Cosmos 2100 Rocket 4.0 18:16:22 10° N 18:22:33 78° W 18:28:40 10° S
CZ-4 R/B 4.0 18:21:07 10° SW 18:24:21 21° W 18:27:37 10° NW
Cosmos-2242 3.9 18:22:13 10° S 18:31:38 - N 18:25:01 39° SSW
Cosmos 2278 Rocket 4.4 18:26:56 10° WSW 18:31:21 23° NW 18:35:47 10° N
ATLAS CENTAUR R/B 4.1 18:32:38 10° N 18:33:06 11° N 18:33:06 11° N
Cosmos 2297 4.3 18:30:16 10° SW 18:35:52 57° WNW 18:41:31 10° NNE
Cosmos 2016 Rocket 3.9 18:32:12 10° N 18:38:33 89° E 18:41:16 37° S
SJ 16-02 2.5 18:38:26 10° NNW 18:41:02 35° NNW 18:41:02 35° NNW
Ariane Rocket 3.8 18:39:06 13° S 18:43:31 48° W 18:48:28 10° NNW
ARGOS 4.3 18:46:31 31° N 18:46:31 31° N 18:49:28 10° N
SL-08 R/B 4.3 18:41:13 10° N 18:47:21 88° E 18:47:42 81° SSE
ADEOS Rocket 3.3 18:55:18 10° NNE 19:02:57 83° ESE 19:09:55 10° SSW
Cosmos 1937 Rocket 4.2 18:58:09 10° NNW 19:02:15 49° WNW 19:02:15 49° WNW
Lacrosse 5 4.1 19:12:09 10° WNW 19:15:31 18° WSW 19:16:09 18° SW
ATLAS 3B R/B 3.7 19:30:22 10° WSW 19:36:37 40° NW 19:37:32 39° NNW
CENTAUR R/B 3.8 19:37:54 10° WSW 19:43:32 36° NW 19:44:14 35° NNW
H-2A R/B 4.3 19:52:28 22° NW 19:52:28 22° NW 19:54:35 10° NNW
